Location: ??
(35.3149°N, 139.6204°E)
Time: 10:42:29
(UTC+00:00)

ATLAS 3B R/B - Pass Details

Date: 03 August 2024
Orbit: 940 x 1254 km, 63.8° (Epoch: 09 September)

Event Time Altitude Azimuth Distance (km) Brightness Sun altitude
Rises 18:24:35 0° 328° (NNW) 4,204 5.9 -16.5°
Reaches altitude 10° 18:27:24 10° 328° (NNW) 3,237 5.3 -16.1°
Maximum altitude 18:35:17 83° 241° (WSW) 1,250 2.9 -14.7°
Drops below altitude 10° 18:42:52 10° 155° (SSE) 3,117 5.1 -13.5°
Sets 18:45:32 0° 155° (SSE) 4,041 5.7 -13.0°
